Voltar ao catálogo

USA 450

AtivoMilitarVLEO
NORAD 62349·PAYLOAD·🇺🇸 United States

Lançado Dec 17, 2024 de Vandenberg Space Force Base

Loading…

Próximas Passagens (próximas 24 horas)

TLE

ObsoletoSource: Mike McCants

Época: Aug 21, 2026, 20:09 UTC

1 62349U 24243K   26233.83999346 0.00000000  00000-0  00000-0 0    09
2 62349  70.0202 132.1257 0003000 223.1167 136.8832 14.96713548    02

Acompanhe USA 450 em tempo real com AllMySat

Download on the App Store